HST 1 20580U 90037B 26126.99845731 .00006020 00000+0 19186-3 0 9992 2 20580 28.4762 1.9769 0002131 49.8237 310.2545 15.30309267782258 POLAR 1 23802U 96013A 26126.44477650 .00000082 00000+0 00000+0 0 9996 2 23802 79.8118 227.5371 6428761 210.5132 87.3108 1.29845919144314 SWAS 1 25560U 98071A 26126.99624213 .00002905 00000+0 18808-3 0 9999 2 25560 69.8970 333.7199 0007957 298.8971 61.1394 15.09340578491051 CXO 1 25867U 99040B 26129.70737146 .00000792 00000+0 00000+0 0 9991 2 25867 55.5364 117.7999 7900392 310.4423 0.0547 0.37799268 17171 XMM-NEWTON 1 25989U 99066A 26127.46061807 .00000093 00000+0 00000+0 0 9993 2 25989 64.6994 283.5063 4686974 65.6184 0.1744 0.50129140 22792 TERRA 1 25994U 99068A 26127.13145345 .00000331 00000+0 76443-4 0 9999 2 25994 97.9487 178.2991 0002549 32.6796 20.0675 14.61070331403615 CLUSTER II-FM7 (SAMBA) 1 26410U 00041A 26127.97661055 .00003266 00000+0 00000+0 0 9990 2 26410 149.7422 43.6467 9004324 260.3696 0.5530 0.44839797 20127 CLUSTER II-FM8 (TANGO) 1 26464U 00045B 26127.89079676 .00003383 00000+0 00000+0 0 9996 2 26464 150.0155 44.7227 9009209 261.2826 0.6203 0.44408145 20118 ODIN 1 26702U 01007A 26127.10382331 .00085285 00000+0 85798-3 0 9991 2 26702 97.3945 165.7625 0000791 231.5599 128.5590 15.65166011382958 TIMED 1 26998U 01055B 26126.99397912 .00001081 00000+0 10194-3 0 9998 2 26998 74.0673 317.9567 0001263 194.0796 166.0354 14.95194669324669 CORIOLIS 1 27640U 03001A 26127.04546933 .00000097 00000+0 66250-4 0 9993 2 27640 98.7139 134.5571 0013470 336.1320 23.9230 14.19933389208387 SORCE 1 27651U 03004A 26127.15897119 .00002155 00000+0 16593-3 0 9996 2 27651 39.9892 135.7155 0016108 120.0349 240.2045 15.03487177265727 MOST 1 27843U 03031D 26127.02909250 .00000056 00000+0 45655-4 0 9995 2 27843 98.7058 135.3280 0010157 17.9976 342.1559 14.21313852184864 SCISAT 1 1 27858U 03036A 26127.09946826 .00000653 00000+0 88139-4 0 9990 2 27858 73.9300 252.9729 0008081 319.2446 40.8125 14.81403813225367 SWIFT 1 28485U 04047A 26127.17217758 .00042650 00000+0 41135-3 0 9991 2 28485 20.5515 140.3224 0002881 112.4427 247.6323 15.64619349180423 HINODE (SOLAR-B) 1 29479U 06041A 26127.03289052 .00000673 00000+0 12401-3 0 9995 2 29479 98.0569 143.7905 0018748 61.4146 298.8943 14.68563835 48834 SHIJIAN-6 02A (SJ-6 02A) 1 29505U 06046A 26127.18714440 .00005721 00000+0 29733-3 0 9995 2 29505 97.6390 167.9542 0001471 285.8223 74.2847 15.16482024 66056 SHIJIAN-6 02B (SJ-6 02B) 1 29506U 06046B 26127.22340704 .00001904 00000+0 15275-3 0 9994 2 29506 97.7147 156.5373 0011147 196.4008 163.6857 15.01259039 64596 FGRST (GLAST) 1 33053U 08029A 26127.17051404 .00002701 00000+0 95620-4 0 9998 2 33053 25.5811 129.2269 0008061 199.9625 160.0598 15.23725172989577 SDO 1 36395U 10005A 26126.38492755 -.00000059 00000+0 00000+0 0 9995 2 36395 34.5661 86.9732 0000885 31.4158 142.6328 1.00272815 59647 CRYOSAT 2 1 36508U 10013A 26127.14292115 .00000108 00000+0 26080-4 0 9998 2 36508 92.0307 267.3361 0002653 88.4736 271.6776 14.51897102852127 X-SAT 1 37389U 11015C 26127.22540275 -.00000079 00000+0 -15996-4 0 9994 2 37389 98.3497 106.2071 0015224 101.5316 258.7575 14.25193256781845 GCOM-W1 (SHIZUKU) 1 38337U 12025A 26126.83035852 .00000470 00000+0 11431-3 0 9998 2 38337 98.2002 68.0186 0001481 101.0498 317.6522 14.57085793743013 NUSTAR 1 38358U 12031A 26127.25003471 .00011380 00000+0 65485-3 0 9997 2 38358 6.0290 341.1180 0009130 227.0498 126.1880 15.08425085 1307 NEOSSAT 1 39089U 13009D 26127.09429700 .00000138 00000+0 62569-4 0 9994 2 39089 98.4171 308.1059 0011257 15.3926 344.7601 14.35812193690848 BRITE-AUSTRIA 1 39091U 13009F 26127.04367693 .00000162 00000+0 69587-4 0 9998 2 39091 98.3988 307.4998 0010317 10.1383 350.0010 14.36525633691145 IRIS 1 39197U 13033A 26127.15298229 .00000985 00000+0 11904-3 0 9994 2 39197 97.9358 326.5557 0025915 93.1163 267.3018 14.85801107694281 HISAKI (SPRINT-A) 1 39253U 13049A 26127.18018920 .00000109 00000+0 62934-4 0 9993 2 39253 29.7196 68.4882 0136575 44.4665 316.6780 13.55539420625854 CASSIOPE 1 39265U 13055A 26127.17886470 .00022236 -54781-6 25525-3 0 9997 2 39265 80.9133 116.3935 0301748 199.9098 159.0159 15.22326447661422 STSAT-3 1 39422U 13066G 26127.22513024 .00002453 00000+0 18901-3 0 9998 2 39422 97.6180 97.8029 0010022 158.0954 202.0701 15.02514063678050 SWARM B 1 39451U 13067A 26127.14800722 .00002966 00000+0 10635-3 0 9991 2 39451 87.7462 354.7819 0002596 99.5246 260.6296 15.28313345676973 SWARM A 1 39452U 13067B 26127.17195778 .00009205 00000+0 16289-3 0 9997 2 39452 87.3325 71.4630 0003579 88.1813 271.9858 15.50122336699896 SWARM C 1 39453U 13067C 26127.17188588 .00009189 00000+0 16259-3 0 9997 2 39453 87.3326 70.0443 0003576 87.9747 272.1923 15.50124076699850 BRITE-CA1 (TORONTO) 1 40020U 14033L 26127.13460242 .00000791 00000+0 12617-3 0 9993 2 40020 97.9679 256.8351 0079662 49.0886 311.7185 14.72620468636179 OCO 2 1 40059U 14035A 26127.15923220 .00000392 00000+0 97016-4 0 9993 2 40059 98.1999 69.0836 0001322 87.8210 272.3139 14.57076950630078 BRITE-PL2 (HEWELIUSZ) 1 40119U 14049B 26127.13024906 .00002258 00000+0 21465-3 0 9993 2 40119 97.9052 238.8292 0012668 242.5580 117.4352 14.94444404635311 MMS 1 1 40482U 15011A 26127.25003471 -.00000508 00000+0 00000+0 0 9998 2 40482 71.5338 349.3499 8356105 166.4425 82.7501 0.28352690 1384 MMS 2 1 40483U 15011B 26127.25003471 -.00000508 00000+0 00000+0 0 9999 2 40483 71.5339 349.3521 8356867 166.4483 82.7366 0.28352708 1380 MMS 3 1 40484U 15011C 26127.25003471 -.00000508 00000+0 00000+0 0 9990 2 40484 71.5376 349.3563 8356117 166.4428 82.7371 0.28352711 1385 MMS 4 1 40485U 15011D 26127.25003471 -.00000508 00000+0 00000+0 0 9991 2 40485 71.5337 349.3522 8355651 166.4503 82.7249 0.28352652 1382 ASTROSAT 1 40930U 15052A 26126.98631559 .00001570 00000+0 10954-3 0 9996 2 40930 5.9967 91.8868 0007900 170.8578 189.1694 14.82436298573703 DAMPE 1 41173U 15078A 26127.18112255 .00001604 00000+0 56636-4 0 9990 2 41173 97.4570 132.4495 0010767 215.3126 144.7403 15.30684857578278 PISAT 1 41784U 16059B 26127.00121155 .00000920 00000+0 16440-3 0 9996 2 41784 97.8184 129.2261 0028494 340.0874 19.9217 14.68910671513695 HXMT (HUIYAN) 1 42758U 17034A 26127.21463631 .00004175 00000+0 20981-3 0 9994 2 42758 43.0153 51.1191 0032955 246.3715 113.3672 15.18108491491436 FLYING LAPTOP 1 42831U 17042G 26127.18712189 .00002126 00000+0 17113-3 0 9993 2 42831 97.4513 284.3509 0017671 263.4299 96.4914 15.00879028480305 ZHANGHENG 1-01 (CSES-1) 1 43194U 18015C 26127.21429282 .00006318 00000+0 28842-3 0 9998 2 43194 97.6847 292.0644 0017421 49.6225 310.6527 15.20839724458411 SALSAT 1 46495U 20068K 26126.99419762 .00006761 00000+0 24112-3 0 9990 2 46495 97.8866 127.5729 0011679 88.6133 271.6444 15.29198929309061 IXPE 1 49954U 21121A 26127.16667823 .00015495 00000+0 87137-3 0 9997 2 49954 0.2310 268.1577 0006900 180.5845 78.9021 15.09886955 5863